TimeEDT,TemperatureF,Dew PointF,Humidity,Sea Level PressureIn,VisibilityMPH,Wind Direction,Wind SpeedMPH,Gust SpeedMPH,PrecipitationIn,Events,Conditions,WindDirDegrees,DateUTC
12:15 AM,33.8,30.2,87,29.87,10.0,Calm,Calm,-,N/A,,Clear,0,2012-11-02 04:15:00
12:35 AM,32.0,30.2,93,29.87,10.0,Calm,Calm,-,N/A,,Clear,0,2012-11-02 04:35:00
12:55 AM,32.0,28.4,87,29.87,10.0,Calm,Calm,-,N/A,,Clear,0,2012-11-02 04:55:00
1:15 AM,32.0,28.4,87,29.87,10.0,Calm,Calm,-,N/A,,Clear,0,2012-11-02 05:15:00
1:35 AM,30.2,28.4,93,29.87,10.0,Calm,Calm,-,N/A,,Clear,0,2012-11-02 05:35:00
1:55 AM,30.2,28.4,93,29.87,10.0,Calm,Calm,-,N/A,,Clear,0,2012-11-02 05:55:00
2:15 AM,30.2,28.4,93,29.87,10.0,Calm,Calm,-,N/A,,Clear,0,2012-11-02 06:15:00
2:35 AM,30.2,30.2,100,29.87,10.0,Calm,Calm,-,N/A,,Clear,0,2012-11-02 06:35:00
2:55 AM,30.2,28.4,93,29.87,10.0,Calm,Calm,-,N/A,,Clear,0,2012-11-02 06:55:00
3:15 AM,30.2,28.4,93,29.88,10.0,Calm,Calm,-,N/A,,Clear,0,2012-11-02 07:15:00
3:35 AM,30.2,30.2,100,29.88,10.0,Calm,Calm,-,N/A,,Scattered Clouds,0,2012-11-02 07:35:00
3:55 AM,30.2,28.4,93,29.88,10.0,Calm,Calm,-,N/A,,Mostly Cloudy,0,2012-11-02 07:55:00
4:15 AM,33.8,30.2,87,29.87,10.0,Calm,Calm,-,N/A,,Overcast,0,2012-11-02 08:15:00
4:35 AM,33.8,32.0,93,29.87,10.0,Calm,Calm,-,N/A,,Overcast,0,2012-11-02 08:35:00
4:55 AM,35.6,32.0,87,29.87,10.0,Calm,Calm,-,N/A,,Overcast,0,2012-11-02 08:55:00
5:15 AM,35.6,32.0,87,29.87,10.0,Calm,Calm,-,N/A,,Overcast,0,2012-11-02 09:15:00
5:35 AM,37.4,33.8,87,29.86,10.0,Calm,Calm,-,N/A,,Overcast,0,2012-11-02 09:35:00
5:55 AM,42.8,26.6,53,29.87,10.0,Calm,Calm,-,N/A,,Overcast,0,2012-11-02 09:55:00
6:15 AM,46.4,26.6,46,29.87,10.0,Calm,Calm,-,N/A,,Overcast,0,2012-11-02 10:15:00
6:35 AM,44.6,24.8,46,29.87,10.0,Calm,Calm,-,N/A,,Overcast,0,2012-11-02 10:35:00
6:55 AM,46.4,24.8,43,29.86,10.0,Calm,Calm,-,N/A,,Overcast,0,2012-11-02 10:55:00
7:15 AM,46.4,24.8,43,29.86,10.0,Calm,Calm,-,N/A,,Overcast,0,2012-11-02 11:15:00
7:35 AM,46.4,24.8,43,29.86,10.0,Calm,Calm,-,N/A,,Overcast,0,2012-11-02 11:35:00
7:55 AM,46.4,24.8,43,29.87,10.0,WSW,4.6,-,N/A,,Overcast,250,2012-11-02 11:55:00
8:15 AM,48.2,24.8,40,29.87,10.0,West,3.5,-,N/A,,Overcast,260,2012-11-02 12:15:00
8:35 AM,46.4,24.8,43,29.87,10.0,Calm,Calm,-,N/A,,Overcast,0,2012-11-02 12:35:00
8:55 AM,46.4,26.6,46,29.86,10.0,Calm,Calm,-,N/A,,Overcast,0,2012-11-02 12:55:00
9:15 AM,46.4,28.4,50,29.86,10.0,Calm,Calm,-,N/A,,Overcast,0,2012-11-02 13:15:00
9:35 AM,46.4,28.4,50,29.87,10.0,Calm,Calm,-,N/A,,Overcast,0,2012-11-02 13:35:00
9:55 AM,48.2,28.4,46,29.87,10.0,Calm,Calm,-,N/A,,Overcast,0,2012-11-02 13:55:00
10:15 AM,48.2,28.4,46,29.87,10.0,Calm,Calm,-,N/A,,Overcast,0,2012-11-02 14:15:00
10:35 AM,48.2,33.8,58,29.86,10.0,Calm,Calm,-,N/A,,Overcast,0,2012-11-02 14:35:00
10:55 AM,46.4,37.4,71,29.86,10.0,Calm,Calm,-,N/A,,Overcast,0,2012-11-02 14:55:00
11:15 AM,48.2,37.4,66,29.87,10.0,Calm,Calm,-,N/A,,Overcast,0,2012-11-02 15:15:00
11:35 AM,48.2,37.4,66,29.87,10.0,Calm,Calm,-,N/A,,Overcast,0,2012-11-02 15:35:00
11:55 AM,48.2,35.6,62,29.87,10.0,Calm,Calm,-,N/A,,Overcast,0,2012-11-02 15:55:00
12:15 PM,51.8,35.6,54,29.87,10.0,Calm,Calm,-,N/A,,Mostly Cloudy,0,2012-11-02 16:15:00
12:35 PM,55.4,33.8,44,29.86,10.0,WSW,3.5,-,N/A,,Scattered Clouds,250,2012-11-02 16:35:00
12:55 PM,55.4,33.8,44,29.87,10.0,NW,11.5,17.3,N/A,,Mostly Cloudy,310,2012-11-02 16:55:00
1:15 PM,55.4,33.8,44,29.87,10.0,NNW,9.2,-,N/A,,Mostly Cloudy,330,2012-11-02 17:15:00
1:35 PM,57.2,32.0,38,29.86,10.0,WNW,10.4,-,N/A,,Scattered Clouds,300,2012-11-02 17:35:00
1:55 PM,60.8,30.2,31,29.85,10.0,WNW,9.2,20.7,N/A,,Scattered Clouds,300,2012-11-02 17:55:00
2:15 PM,57.2,30.2,36,29.85,10.0,NW,11.5,19.6,N/A,,Scattered Clouds,310,2012-11-02 18:15:00
2:35 PM,59.0,26.6,29,29.85,10.0,NW,9.2,-,N/A,,Clear,320,2012-11-02 18:35:00
2:55 PM,60.8,24.8,25,29.86,10.0,NW,13.8,18.4,N/A,,Clear,320,2012-11-02 18:55:00
3:15 PM,60.8,24.8,25,29.87,10.0,NW,16.1,20.7,N/A,,Clear,320,2012-11-02 19:15:00
3:35 PM,60.8,24.8,25,29.86,10.0,WNW,10.4,-,N/A,,Clear,290,2012-11-02 19:35:00
3:55 PM,60.8,23.0,23,29.87,10.0,NNW,9.2,-,N/A,,Clear,330,2012-11-02 19:55:00
4:15 PM,60.8,23.0,23,29.87,10.0,WSW,5.8,-,N/A,,Clear,250,2012-11-02 20:15:00
4:35 PM,60.8,23.0,23,29.88,10.0,NW,9.2,-,N/A,,Clear,320,2012-11-02 20:35:00
4:55 PM,59.0,23.0,25,29.88,10.0,NW,11.5,-,N/A,,Clear,310,2012-11-02 20:55:00
5:15 PM,59.0,23.0,25,29.89,10.0,WNW,8.1,-,N/A,,Clear,300,2012-11-02 21:15:00
5:35 PM,57.2,23.0,27,29.89,10.0,Calm,Calm,-,N/A,,Clear,0,2012-11-02 21:35:00
5:55 PM,55.4,23.0,29,29.90,10.0,Calm,Calm,-,N/A,,Clear,0,2012-11-02 21:55:00
6:15 PM,51.8,26.6,38,29.91,10.0,Calm,Calm,-,N/A,,Clear,0,2012-11-02 22:15:00
6:35 PM,48.2,28.4,46,29.92,10.0,Calm,Calm,-,N/A,,Clear,0,2012-11-02 22:35:00
6:55 PM,46.4,28.4,50,29.92,10.0,Calm,Calm,-,N/A,,Clear,0,2012-11-02 22:55:00
7:15 PM,46.4,26.6,46,29.93,10.0,Calm,Calm,-,N/A,,Clear,0,2012-11-02 23:15:00
7:35 PM,44.6,28.4,53,29.94,10.0,Calm,Calm,-,N/A,,Clear,0,2012-11-02 23:35:00
7:55 PM,42.8,30.2,61,29.95,10.0,Calm,Calm,-,N/A,,Clear,0,2012-11-02 23:55:00
8:15 PM,42.8,28.4,57,29.96,10.0,Calm,Calm,-,N/A,,Clear,0,2012-11-03 00:15:00
8:35 PM,39.2,30.2,70,29.96,10.0,Calm,Calm,-,N/A,,Clear,0,2012-11-03 00:35:00
8:55 PM,37.4,30.2,75,29.97,10.0,Calm,Calm,-,N/A,,Clear,0,2012-11-03 00:55:00
9:15 PM,37.4,30.2,75,29.98,10.0,WNW,3.5,-,N/A,,Clear,300,2012-11-03 01:15:00
9:35 PM,39.2,30.2,70,29.98,10.0,NW,4.6,-,N/A,,Clear,310,2012-11-03 01:35:00
9:55 PM,39.2,30.2,70,29.98,10.0,Calm,Calm,-,N/A,,Clear,0,2012-11-03 01:55:00
10:15 PM,37.4,30.2,75,29.99,10.0,Calm,Calm,-,N/A,,Clear,0,2012-11-03 02:15:00
10:35 PM,37.4,30.2,75,29.99,10.0,Calm,Calm,-,N/A,,Clear,0,2012-11-03 02:35:00
10:55 PM,35.6,30.2,81,29.99,10.0,Calm,Calm,-,N/A,,Clear,0,2012-11-03 02:55:00
11:15 PM,35.6,30.2,81,29.99,10.0,Calm,Calm,-,N/A,,Clear,0,2012-11-03 03:15:00
11:35 PM,35.6,30.2,81,29.99,10.0,Calm,Calm,-,N/A,,Clear,0,2012-11-03 03:35:00
11:55 PM,33.8,30.2,87,30.00,10.0,Calm,Calm,-,N/A,,Clear,0,2012-11-03 03:55:00